Theta_e
321 324 325 325 323 323 323 323 324 322 322 321 322 322 322 321 318 318 317 316 317 316 315 317 317 315 312 312 319 318 321 323 323 318 322 324 324 324 322 320 320 321 322 323
321 325 324 323 322 321 322 323 323 322 321 321 323 322 322 321 320 319 319 317 317 317 316 316 318 316 313 311 319 320 319 321 323 321 324 325 325 324 321 322 323 323 323 322
325 325 321 322 321 322 322 323 323 324 321 320 320 322 322 322 318 318 318 318 317 317 318 316 318 316 313 312 317 319 318 319 324 324 324 325 324 323 322 326 326 326 324 325
324 321 322 322 323 323 325 322 323 323 322 324 321 324 323 323 323 321 319 317 317 317 317 316 318 316 312 315 315 319 317 321 324 325 325 326 326 324 325 326 326 326 326 325
324 322 322 323 323 322 324 322 322 322 324 321 322 322 322 321 323 324 324 319 317 317 316 316 317 316 312 316 316 320 318 319 322 324 322 322 326 327 325 323 325 325 325 326
324 320 323 323 323 322 323 321 320 320 321 323 323 322 321 323 324 324 324 321 318 317 317 317 317 317 315 317 317 319 317 317 318 323 322 321 323 326 327 325 324 323 323 325
323 323 321 322 324 320 322 324 325 326 326 324 320 321 323 324 324 323 323 322 318 317 317 318 317 317 317 317 319 321 318 317 315 317 320 321 324 325 327 326 326 325 323 322
324 324 322 321 324 324 323 325 324 326 323 324 320 323 322 325 323 324 323 323 318 317 318 319 317 317 315 318 319 321 322 316 317 316 315 320 322 322 325 327 327 326 324 324
324 323 320 321 322 323 321 322 323 324 321 322 322 323 324 326 327 326 323 319 318 317 318 318 317 317 315 318 318 321 322 319 318 317 316 317 320 321 320 325 327 326 325 326
322 324 322 322 321 321 323 321 323 321 324 325 323 324 325 325 325 328 325 321 318 318 318 319 317 316 315 318 319 321 322 321 316 316 316 315 317 318 319 323 323 321 322 326
323 323 322 321 323 323 321 322 322 322 322 325 326 325 326 328 330 332 328 322 319 318 318 319 318 316 316 319 320 321 322 321 311 314 314 315 315 317 318 319 320 320 319 322
322 324 325 323 322 323 323 323 324 324 325 323 324 325 325 328 331 331 329 322 320 319 319 319 318 316 317 319 320 320 321 320 310 309 311 313 315 314 317 317 317 317 321 322
323 327 326 323 328 326 323 323 324 325 325 326 325 325 326 329 330 328 327 322 319 319 319 319 318 316 317 318 320 320 321 319 313 311 310 309 314 313 317 317 316 319 318 316
322 326 326 325 324 325 327 325 323 325 325 325 325 325 327 330 330 328 327 322 320 319 319 319 318 317 317 318 319 320 320 319 316 313 312 309 310 313 313 316 317 320 319 317
324 325 324 323 323 325 324 325 327 326 325 326 326 327 327 329 330 330 327 322 320 320 320 319 318 317 316 317 319 319 319 317 316 314 315 312 309 312 312 313 314 319 318 319
320 326 324 323 322 322 323 323 324 326 325 326 325 327 328 327 329 328 324 321 320 320 320 320 319 316 316 317 318 319 319 316 315 315 316 314 309 310 313 313 313 317 319 317
324 326 323 324 322 322 324 323 323 325 326 325 326 327 328 330 331 330 325 323 322 322 320 320 320 318 315 316 317 318 318 317 316 315 316 315 311 308 312 314 316 318 319 319
326 329 326 327 326 327 326 324 322 324 325 326 326 327 328 328 329 330 328 325 324 325 323 321 320 321 317 314 317 318 319 318 316 313 316 315 311 308 309 313 314 314 315 317
317 325 334 336 331 326 328 327 324 325 326 327 327 327 327 327 328 328 327 326 327 327 327 326 324 321 320 316 315 318 319 319 317 313 314 315 312 307 309 310 311 313 314 314
321 323 325 333 333 329 327 329 325 326 329 328 327 329 328 327 329 329 326 326 327 326 326 327 326 322 322 319 316 317 318 318 318 314 312 314 312 307 309 309 311 310 310 310
322 325 323 324 332 329 327 328 325 331 329 329 327 328 327 329 329 328 326 326 326 326 326 326 326 326 325 321 318 316 317 316 316 315 313 312 312 308 309 309 309 308 308 307
319 321 322 326 325 325 324 326 330 332 326 327 327 328 327 326 328 326 325 326 325 326 326 326 326 326 325 323 319 317 316 313 315 316 314 312 311 309 309 309 309 309 309 308
321 319 321 322 321 327 326 328 327 326 328 324 327 327 326 327 327 326 325 325 325 326 326 326 326 326 325 324 321 319 318 315 314 317 316 313 311 310 309 310 309 309 309 310
314 321 323 323 322 325 325 326 326 325 324 324 323 323 324 325 325 325 325 325 325 325 325 326 325 325 325 324 323 321 319 316 315 315 318 316 313 311 309 310 311 310 310 312
313 318 323 324 324 323 323 325 325 324 323 323 324 324 324 324 324 324 325 325 326 326 326 326 326 326 326 326 324 322 320 318 316 316 316 317 317 314 311 310 311 312 311 313
318 317 321 324 323 325 325 323 324 324 324 324 324 324 323 323 324 326 327 327 327 326 326 326 326 325 325 325 324 323 321 319 317 316 316 317 318 317 316 313 313 311 312 313
Wind_Speed
11 10 16 17 12 9 9 5 5 5 5 4 10 12 16 16 15 17 19 21 21 22 16 11 8 3 2 5 5 9 11 14 15 10 9 10 10 9 6 3 4 8 7 6
7 18 12 11 9 9 6 5 6 6 5 4 10 14 16 12 10 18 22 23 24 20 20 15 11 5 1 4 3 7 10 12 13 9 10 14 13 10 7 6 7 13 6 8
20 9 12 11 9 9 6 7 4 9 3 5 7 11 8 8 6 8 15 21 24 26 23 19 15 8 4 2 2 7 10 11 12 9 6 12 14 11 13 17 18 25 16 10
12 9 13 11 13 12 11 11 7 5 4 9 1 7 7 9 11 9 14 20 24 26 23 19 16 10 7 3 4 6 9 10 11 14 10 11 14 15 12 16 19 21 23 23
15 14 16 11 12 12 9 6 5 4 7 3 4 4 5 4 9 13 15 20 24 28 29 24 18 12 9 6 5 5 8 9 10 12 13 14 15 13 10 11 15 18 19 18
17 5 10 14 8 13 4 4 3 2 2 4 7 6 4 5 8 6 7 12 22 27 28 24 17 14 11 8 5 4 6 6 8 9 12 13 14 14 13 10 9 10 15 18
10 13 5 6 8 4 8 7 5 4 4 6 2 4 8 11 14 13 13 7 17 26 28 26 23 19 14 11 7 3 5 4 6 8 9 12 15 17 14 16 8 7 7 18
16 13 16 9 17 13 13 12 7 4 4 8 3 5 6 8 6 6 9 6 15 25 28 26 23 19 16 12 9 5 2 4 5 7 10 10 11 14 16 17 15 17 18 11
18 18 5 14 8 16 7 7 6 8 1 4 3 5 11 6 9 5 3 9 17 25 30 28 23 19 17 14 11 7 2 4 3 6 8 9 8 10 12 19 19 19 16 13
7 8 14 12 11 8 13 12 5 3 5 7 4 3 7 13 10 1 5 10 17 23 26 26 23 20 19 16 12 7 4 1 2 3 7 7 6 7 9 11 12 12 14 14
14 9 4 10 16 18 7 9 3 3 4 7 8 5 5 8 4 5 7 13 20 26 28 26 23 21 19 17 14 9 5 2 1 2 4 6 6 5 7 9 9 9 12 14
20 12 15 10 4 16 22 18 15 10 9 4 5 10 5 7 3 5 4 9 15 25 27 24 23 23 22 19 16 11 7 5 3 3 3 4 5 5 6 8 11 11 11 13
13 12 13 14 5 3 13 12 14 7 3 13 11 8 2 4 1 5 11 16 19 27 26 24 24 25 23 21 17 14 10 9 5 5 4 4 5 6 7 6 9 12 13 15
25 10 24 19 13 13 10 13 15 16 10 11 12 14 7 8 5 8 14 16 20 28 31 26 25 25 24 22 19 16 12 12 8 7 6 5 7 7 9 8 9 10 11 12
17 19 17 21 15 18 19 18 17 16 15 13 12 11 13 11 8 8 10 16 19 25 29 32 29 27 27 24 22 18 14 14 11 9 6 6 9 11 9 10 10 10 10 11
3 10 14 17 17 21 22 22 19 21 20 17 16 15 10 8 9 9 12 16 19 26 33 30 29 30 29 27 25 22 18 16 13 11 9 6 8 13 13 11 11 11 10 11
6 8 8 16 12 18 19 25 23 18 15 15 15 17 9 9 11 14 18 20 23 24 29 33 36 33 31 30 27 26 21 18 15 13 12 8 8 14 17 15 13 12 11 10
6 7 4 5 10 11 2 10 23 20 18 19 17 16 16 19 22 15 17 21 19 21 25 32 37 35 31 29 28 25 23 20 17 16 15 11 9 14 18 18 16 14 13 11
2 3 5 6 9 3 4 4 11 14 16 17 21 19 16 11 9 13 17 18 13 13 16 21 30 38 32 31 30 28 26 23 21 19 18 15 11 13 17 18 18 17 15 14
7 1 3 3 9 17 8 8 8 10 11 15 21 17 15 15 10 13 24 24 19 11 11 20 23 34 37 33 31 31 30 28 25 22 19 17 14 13 14 16 17 17 16 14
5 4 9 6 5 4 5 9 18 13 6 11 24 23 19 14 20 18 15 22 16 10 10 18 25 25 33 38 36 35 34 32 27 23 20 19 16 14 14 15 16 16 17 17
10 7 7 5 7 12 7 12 13 7 6 11 18 21 27 36 18 20 15 16 12 8 8 19 26 27 27 38 40 38 38 33 30 27 24 22 20 18 18 17 18 19 18 18
8 10 11 8 7 3 26 15 26 15 12 12 15 18 23 21 22 21 23 23 16 11 10 16 26 28 29 33 43 44 38 36 35 32 29 25 23 22 21 21 22 22 21 20
19 7 10 10 16 10 17 16 16 22 15 12 12 11 15 19 15 19 18 16 16 16 16 17 26 27 26 31 39 46 41 39 37 37 33 29 27 26 24 24 24 24 24 23
14 13 14 12 10 7 9 20 11 18 14 12 10 14 13 12 13 12 11 12 13 13 18 20 25 27 26 27 36 43 46 41 40 39 37 35 32 29 28 28 28 28 26 25
5 14 10 13 9 11 13 26 29 23 25 20 19 17 12 11 10 10 10 10 12 15 19 21 22 23 26 28 32 38 44 46 42 42 41 40 38 35 32 30 29 28 26 24
Wind_Direction
179 193 211 208 205 229 240 232 247 248 252 255 265 273 275 280 240 222 209 204 204 211 208 201 198 183 5 1 16 15 19 15 16 14 12 16 14 10 3 339 345 306 238 183
161 217 204 189 197 204 207 226 243 272 268 227 287 275 274 266 247 225 215 206 206 202 204 200 196 181 153 8 39 29 25 21 17 14 14 20 20 35 48 43 19 25 129 176
203 203 165 179 175 194 198 217 216 286 316 246 286 280 269 280 253 240 227 221 210 203 200 198 193 179 160 49 96 53 31 23 21 9 5 31 33 51 71 65 64 62 74 131
208 165 170 182 202 203 224 219 244 249 271 292 240 294 288 284 283 256 232 214 208 202 203 199 189 178 163 118 127 59 41 34 37 37 34 48 45 69 79 79 74 71 68 71
195 177 187 193 208 183 239 171 206 232 259 305 224 245 271 289 278 268 240 217 208 201 200 195 190 170 164 143 133 75 56 45 47 42 40 44 45 54 65 84 79 67 53 55
214 171 191 207 194 192 177 139 93 94 179 252 250 226 273 241 238 259 250 211 203 195 194 193 183 171 170 163 146 100 59 52 52 43 41 34 45 52 53 54 84 76 48 65
190 203 186 194 206 138 183 198 241 238 220 270 91 198 259 262 253 254 291 255 201 192 187 187 183 179 177 173 168 142 57 56 57 47 41 39 46 50 57 55 85 91 123 86
201 210 201 178 214 205 197 207 234 236 236 298 135 234 258 255 299 289 277 240 185 184 185 189 186 181 178 172 180 194 73 50 72 60 43 47 55 55 58 41 94 97 123 94
198 220 167 185 189 198 176 200 232 248 48 265 256 250 281 281 254 240 136 164 174 181 186 189 186 182 178 172 171 181 175 24 75 58 50 47 59 62 58 53 101 90 94 114
171 195 212 194 199 202 204 163 181 191 229 250 221 268 270 297 300 172 185 189 174 180 188 190 186 183 180 172 174 184 177 311 128 59 59 53 64 66 64 72 76 76 84 94
180 195 153 173 199 205 179 202 190 231 233 253 275 265 225 258 327 318 224 201 178 179 189 192 186 185 183 179 183 190 183 206 187 115 76 66 74 87 78 88 83 79 75 78
192 200 210 197 174 223 205 206 204 223 205 234 276 271 221 233 282 289 177 189 193 180 188 191 188 186 187 188 190 195 191 179 182 158 123 102 94 96 102 93 85 91 98 96
167 204 201 217 195 161 209 197 203 212 226 221 241 253 169 244 248 163 156 171 189 177 187 192 189 191 190 191 194 190 184 178 173 157 138 133 128 113 131 102 94 101 97 94
176 187 206 213 229 196 198 188 203 200 214 223 235 253 238 220 211 190 157 176 182 180 189 194 194 194 191 191 191 184 179 181 177 164 141 137 149 142 150 133 113 109 105 106
187 214 215 217 195 194 211 212 205 209 218 220 225 223 240 224 208 203 155 164 181 178 191 197 197 197 193 192 193 190 185 183 181 173 158 150 159 163 155 156 140 130 120 114
181 211 204 208 207 214 224 220 213 215 215 231 243 243 233 200 184 162 162 166 192 185 194 197 198 201 199 194 192 191 187 182 183 181 171 172 167 173 169 163 156 149 137 130
149 151 169 218 201 222 241 227 217 214 207 216 225 238 182 198 199 190 173 183 198 192 196 199 204 203 201 201 193 192 189 184 185 185 182 182 179 178 179 176 171 166 163 153
130 141 178 165 143 217 214 214 213 213 208 214 225 240 199 214 210 195 192 188 199 195 202 207 206 206 204 201 198 193 193 191 188 189 190 187 186 181 184 186 184 183 181 180
187 112 139 175 206 261 159 184 170 195 217 213 216 227 221 205 188 228 209 195 193 180 192 206 214 210 204 201 199 196 195 197 194 192 192 190 188 184 183 187 189 192 194 195
140 278 210 154 214 231 179 191 204 174 222 204 213 212 194 175 209 230 216 205 205 204 200 195 207 211 209 204 197 198 199 198 199 196 193 190 185 184 180 183 186 188 191 194
168 156 205 200 240 273 238 167 157 194 199 199 203 208 183 189 220 232 207 205 206 231 239 202 202 202 208 206 199 200 200 202 198 195 194 193 188 180 178 176 174 173 175 175
203 187 201 193 222 241 161 152 184 192 193 202 198 193 196 217 226 222 214 213 223 212 236 213 203 204 207 208 205 202 204 201 198 196 195 195 190 184 183 180 176 175 176 176
249 225 223 216 225 92 177 176 204 211 195 197 197 201 211 231 234 237 236 241 227 234 259 229 205 204 207 208 207 207 210 200 200 200 198 196 195 193 191 188 185 185 184 184
238 255 245 223 231 222 203 223 219 213 211 220 205 193 211 226 242 246 244 244 238 244 244 230 203 205 209 204 204 211 208 203 201 202 202 199 200 199 198 199 198 198 195 192
224 212 233 237 240 223 231 219 231 208 200 195 195 194 194 205 222 244 253 249 253 231 214 219 207 202 207 205 202 207 209 206 204 204 204 203 203 205 205 206 207 207 206 205
248 222 222 231 198 212 207 213 223 209 206 204 192 183 191 209 217 215 223 241 235 223 214 211 218 217 218 215 207 206 207 206 206 206 207 207 206 206 211 212 213 214 215 215